Regional Weather Roundup
Issued by NWS

Home | Current Version | Previous Version | Text Only | Print | Product List | Glossary On
Versions: 1 2 3 4 5 6 7 8 9 10 11 12 13 14 15 16 17 18 19 20 21 22 23 24 25 26 27 28 29 30 31 32 33 34 35 36 37 38 39 40 41 42 43 44 45 46 47 48 49 50
000
ASUS45 KREV 052010
RWRNV
NEVADA REGIONAL WEATHER ROUNDUP
NATIONAL WEATHER SERVICE RENO NV
1200 PM PST THU MAR 05 2015

NOTE: "FAIR" INDICATES FEW OR NO CLOUDS BELOW 12,000 FEET WITH NO
SIGNIFICANT WEATHER AND/OR OBSTRUCTIONS TO VISIBILITY.

NVZ001-003-004-052100-
WESTERN NEVADA

CITY           SKY/WX    TMP DP  RH WIND       PRES   REMARKS
RENO           MOSUNNY   51  18  27 CALM      30.39F
CARSON CITY    FAIR      52  19  28 E9        30.39F
MINDEN         FAIR      48  14  25 NW5       30.40
SLIDE MTN        N/A     39  16  38 W3          N/A
FALLON         MOSUNNY   51  16  24 VRB5      30.40F
LOVELOCK       SUNNY     50  18  28 VRB3      30.41F
HAWTHORNE      SUNNY     50  14  23 CALM      30.41F
$$

NVZ002-CAZ072-073-052100-
NORTHERN AND CENTRAL SIERRA

CITY           SKY/WX    TMP DP  RH WIND       PRES   REMARKS
S. LAKE TAHOE  SUNNY     48  22  35 NE7       30.38F
TRUCKEE        SUNNY     46  25  42 CALM      30.38F
SQUAW VLY 8000   N/A     43  12  28 SW6         N/A
BLUE CANYON    SUNNY     51   8  17 S8        30.40R
MAMMOTH LAKES  FAIR      52  -6   9 SE6       30.40S
BRIDGEPORT     FAIR      56  -8   7 S12G17    30.34F
$$

NVZ030-031-036-052100-
NORTHERN NEVADA

CITY           SKY/WX    TMP DP  RH WIND       PRES   REMARKS
ELKO           SUNNY     48  11  22 SW10      30.40F
WINNEMUCCA     SUNNY     51  15  23 S6        30.40F
WENDOVER       SUNNY     41  21  45 E6        30.43F
$$

NVZ035-037-052100-
CENTRAL NEVADA

CITY           SKY/WX    TMP DP  RH WIND       PRES   REMARKS
ELY            SUNNY     47   9  21 MISG      30.39F
$$

NVZ013-014-052100-
SOUTH CENTRAL NEVADA

CITY           SKY/WX    TMP DP  RH WIND       PRES   REMARKS
TONOPAH        SUNNY     49  14  24 SW6       30.40F
$$

NVZ017-020-022-052100-
SOUTHERN NEVADA

CITY           SKY/WX    TMP DP  RH WIND       PRES   REMARKS
LAS VEGAS      SUNNY     59  21  23 VRB3      30.34F
N. LAS VEGAS   SUNNY     57  21  24 CALM      30.37F
NELLIS AFB     SUNNY     59  27  29 NE9       30.37F
HENDERSON      SUNNY     57  24  28 NE8       30.39F
MERCURY        SUNNY     59  22  24 NW6       30.36F
$$


USA.gov is the U.S. government's official web portal to all federal, state and local government web resources and services.